QPF
0.01 0.02 0.02 0.03 0.03 0.04 0.03 0.02 0.01 0.01 0.00 0.01 0.01 0.01 0.02 0.02 0.02 0.03 0.04 0.05 0.06 0.06 0.06 0.06 0.06 0.06 0.06 0.05 0.05 0.04 0.03 0.04 0.05 0.04 0.04 0.03 0.03 0.03 0.02 0.01 0.01 0.01 0.00
0.01 0.02 0.02 0.03 0.03 0.03 0.03 0.03 0.01 0.00 0.00 0.00 0.00 0.00 0.01 0.01 0.01 0.02 0.02 0.02 0.03 0.03 0.04 0.04 0.04 0.04 0.05 0.05 0.05 0.04 0.04 0.04 0.04 0.04 0.04 0.04 0.03 0.03 0.02 0.02 0.01 0.01 0.00
0.02 0.02 0.02 0.02 0.02 0.02 0.02 0.02 0.01 0.00 0.00 0.00 0.00 0.00 0.00 0.00 0.00 0.01 0.01 0.01 0.02 0.02 0.02 0.02 0.03 0.03 0.03 0.04 0.04 0.04 0.04 0.04 0.04 0.04 0.03 0.03 0.03 0.03 0.02 0.01 0.01 0.01 0.01
0.01 0.02 0.01 0.01 0.01 0.01 0.01 0.01 0.01 0.00 0.00 0.00 0.00 0.00 0.00 0.00 0.00 0.00 0.00 0.00 0.01 0.01 0.01 0.02 0.02 0.02 0.03 0.03 0.04 0.04 0.04 0.04 0.05 0.04 0.03 0.02 0.02 0.01 0.01 0.01 0.01 0.01 0.01
0.01 0.01 0.01 0.01 0.01 0.01 0.01 0.00 0.00 0.00 0.00 0.00 0.00 0.00 0.00 0.00 0.00 0.00 0.00 0.00 0.00 0.01 0.01 0.01 0.02 0.02 0.03 0.03 0.04 0.04 0.05 0.05 0.05 0.04 0.03 0.03 0.02 0.01 0.01 0.01 0.01 0.01 0.01
0.00 0.00 0.00 0.01 0.01 0.01 0.00 0.00 0.00 0.00 0.00 0.00 0.00 0.00 0.00 0.00 0.00 0.01 0.01 0.00 0.00 0.00 0.00 0.01 0.01 0.02 0.02 0.03 0.03 0.03 0.03 0.04 0.04 0.04 0.03 0.02 0.02 0.02 0.02 0.02 0.02 0.01 0.01
0.00 0.00 0.00 0.00 0.00 0.00 0.01 0.01 0.01 0.01 0.00 0.00 0.00 0.00 0.00 0.01 0.01 0.01 0.01 0.01 0.00 0.00 0.00 0.01 0.01 0.01 0.02 0.02 0.02 0.02 0.02 0.03 0.04 0.04 0.03 0.02 0.02 0.02 0.02 0.02 0.02 0.02 0.02
0.00 0.00 0.00 0.00 0.00 0.00 0.01 0.01 0.01 0.01 0.01 0.01 0.01 0.01 0.01 0.01 0.01 0.01 0.01 0.01 0.00 0.00 0.00 0.00 0.01 0.01 0.02 0.02 0.03 0.02 0.02 0.02 0.03 0.03 0.03 0.03 0.02 0.02 0.02 0.02 0.02 0.02 0.02
0.00 0.00 0.00 0.00 0.00 0.00 0.01 0.01 0.01 0.01 0.01 0.01 0.01 0.01 0.01 0.00 0.01 0.01 0.02 0.01 0.01 0.01 0.00 0.00 0.01 0.01 0.01 0.02 0.03 0.03 0.02 0.02 0.03 0.03 0.03 0.04 0.04 0.04 0.03 0.03 0.02 0.02 0.01
0.00 0.00 0.00 0.00 0.00 0.01 0.01 0.01 0.01 0.01 0.01 0.01 0.00 0.00 0.00 0.00 0.01 0.01 0.02 0.01 0.01 0.01 0.01 0.01 0.01 0.01 0.01 0.02 0.02 0.03 0.03 0.03 0.03 0.03 0.03 0.03 0.03 0.03 0.03 0.03 0.03 0.03 0.02
0.00 0.00 0.00 0.01 0.01 0.01 0.01 0.01 0.01 0.01 0.01 0.01 0.00 0.00 0.00 0.00 0.00 0.01 0.01 0.02 0.02 0.01 0.01 0.01 0.01 0.01 0.02 0.03 0.03 0.03 0.03 0.03 0.03 0.03 0.03 0.03 0.03 0.03 0.03 0.03 0.03 0.04 0.04
0.01 0.01 0.01 0.01 0.01 0.01 0.01 0.01 0.01 0.01 0.01 0.01 0.01 0.01 0.01 0.01 0.01 0.01 0.01 0.01 0.01 0.01 0.01 0.01 0.01 0.02 0.02 0.03 0.03 0.03 0.03 0.03 0.03 0.03 0.02 0.02 0.02 0.02 0.03 0.03 0.03 0.04 0.04
0.01 0.01 0.01 0.00 0.00 0.00 0.01 0.01 0.01 0.01 0.01 0.01 0.01 0.01 0.01 0.01 0.01 0.01 0.01 0.01 0.02 0.01 0.01 0.01 0.01 0.02 0.02 0.02 0.02 0.03 0.02 0.02 0.02 0.02 0.02 0.02 0.02 0.02 0.02 0.02 0.02 0.03 0.03
0.01 0.01 0.00 0.00 0.00 0.00 0.00 0.00 0.01 0.01 0.01 0.01 0.01 0.01 0.01 0.01 0.00 0.01 0.01 0.01 0.01 0.01 0.01 0.01 0.01 0.01 0.01 0.01 0.01 0.01 0.01 0.01 0.01 0.01 0.02 0.02 0.02 0.02 0.02 0.02 0.02 0.03 0.03
0.01 0.01 0.01 0.01 0.01 0.00 0.00 0.00 0.01 0.01 0.01 0.02 0.01 0.01 0.01 0.01 0.01 0.01 0.02 0.01 0.01 0.01 0.02 0.02 0.02 0.01 0.01 0.01 0.01 0.01 0.01 0.01 0.01 0.01 0.01 0.02 0.02 0.02 0.02 0.02 0.03 0.03 0.03
0.01 0.01 0.01 0.01 0.01 0.01 0.00 0.00 0.01 0.01 0.01 0.01 0.01 0.01 0.01 0.01 0.01 0.01 0.01 0.01 0.01 0.02 0.02 0.02 0.02 0.02 0.01 0.01 0.01 0.01 0.01 0.01 0.01 0.01 0.01 0.02 0.02 0.02 0.03 0.03 0.03 0.03 0.03
0.02 0.01 0.01 0.01 0.01 0.01 0.01 0.01 0.01 0.01 0.01 0.01 0.01 0.01 0.01 0.01 0.01 0.01 0.01 0.01 0.01 0.01 0.01 0.01 0.01 0.01 0.01 0.01 0.01 0.01 0.01 0.01 0.01 0.01 0.02 0.02 0.02 0.02 0.02 0.03 0.03 0.03 0.03
0.01 0.01 0.01 0.01 0.01 0.01 0.01 0.01 0.01 0.01 0.01 0.01 0.01 0.01 0.01 0.01 0.01 0.02 0.02 0.02 0.01 0.01 0.01 0.01 0.01 0.01 0.01 0.01 0.01 0.01 0.01 0.01 0.01 0.01 0.01 0.01 0.01 0.02 0.02 0.02 0.02 0.02 0.02
0.02 0.02 0.02 0.01 0.01 0.01 0.01 0.01 0.01 0.01 0.01 0.01 0.01 0.02 0.01 0.02 0.01 0.02 0.02 0.02 0.02 0.01 0.01 0.01 0.01 0.01 0.01 0.02 0.01 0.01 0.01 0.01 0.01 0.01 0.01 0.01 0.01 0.02 0.02 0.02 0.02 0.02 0.02
0.01 0.02 0.02 0.01 0.01 0.01 0.01 0.01 0.01 0.01 0.01 0.01 0.02 0.02 0.02 0.03 0.02 0.02 0.02 0.02 0.02 0.01 0.01 0.02 0.02 0.02 0.02 0.02 0.02 0.01 0.01 0.01 0.01 0.01 0.01 0.01 0.01 0.02 0.02 0.02 0.02 0.02 0.02
0.01 0.02 0.02 0.01 0.01 0.01 0.01 0.01 0.01 0.02 0.02 0.02 0.02 0.02 0.02 0.03 0.02 0.02 0.02 0.02 0.02 0.02 0.02 0.02 0.02 0.02 0.02 0.02 0.02 0.01 0.01 0.01 0.01 0.01 0.01 0.01 0.02 0.02 0.02 0.02 0.01 0.01 0.02
0.02 0.02 0.02 0.01 0.01 0.01 0.01 0.01 0.02 0.02 0.02 0.02 0.02 0.02 0.02 0.02 0.02 0.02 0.02 0.02 0.02 0.02 0.03 0.03 0.03 0.02 0.02 0.02 0.02 0.02 0.01 0.01 0.01 0.01 0.02 0.02 0.02 0.02 0.02 0.02 0.02 0.02 0.02
0.02 0.02 0.01 0.01 0.01 0.01 0.02 0.02 0.02 0.02 0.02 0.02 0.02 0.02 0.02 0.02 0.02 0.02 0.01 0.01 0.02 0.02 0.02 0.03 0.03 0.02 0.02 0.02 0.02 0.02 0.02 0.02 0.02 0.02 0.03 0.02 0.02 0.02 0.02 0.02 0.02 0.02 0.02
0.02 0.02 0.02 0.02 0.02 0.01 0.01 0.02 0.02 0.02 0.02 0.02 0.02 0.02 0.02 0.02 0.02 0.01 0.01 0.01 0.02 0.02 0.02 0.02 0.02 0.02 0.02 0.01 0.01 0.01 0.01 0.02 0.02 0.02 0.03 0.02 0.02 0.02 0.02 0.02 0.01 0.01 0.01
0.01 0.02 0.02 0.02 0.01 0.01 0.01 0.01 0.02 0.02 0.02 0.02 0.03 0.02 0.02 0.01 0.01 0.01 0.01 0.02 0.02 0.02 0.02 0.02 0.02 0.02 0.01 0.01 0.01 0.01 0.01 0.01 0.02 0.03 0.03 0.02 0.02 0.01 0.01 0.01 0.01 0.01 0.02
0.01 0.01 0.01 0.01 0.01 0.01 0.01 0.02 0.02 0.02 0.02 0.02 0.02 0.01 0.01 0.01 0.02 0.02 0.02 0.02 0.02 0.02 0.02 0.01 0.02 0.02 0.01 0.01 0.01 0.01 0.01 0.01 0.02 0.02 0.03 0.03 0.02 0.02 0.02 0.02 0.02 0.02 0.02
MSLP
1007.20 1007.60 1008.06 1008.57 1009.07 1009.53 1009.95 1010.31 1010.63 1010.91 1011.15 1011.36 1011.55 1011.72 1011.86 1012.00 1012.14 1012.30 1012.49 1012.72 1013.00 1013.31 1013.63 1013.94 1014.22 1014.44 1014.60 1014.68 1014.70 1014.68 1014.64 1014.61 1014.60 1014.61 1014.64 1014.69 1014.73 1014.75 1014.74 1014.70 1014.64 1014.57 1014.52
1007.82 1008.17 1008.58 1009.04 1009.48 1009.90 1010.26 1010.58 1010.84 1011.06 1011.25 1011.40 1011.52 1011.63 1011.72 1011.81 1011.92 1012.05 1012.22 1012.45 1012.71 1013.01 1013.32 1013.62 1013.88 1014.09 1014.24 1014.32 1014.35 1014.35 1014.34 1014.34 1014.36 1014.41 1014.47 1014.54 1014.59 1014.62 1014.60 1014.55 1014.46 1014.36 1014.27
1008.54 1008.86 1009.23 1009.63 1010.01 1010.36 1010.66 1010.91 1011.12 1011.28 1011.41 1011.50 1011.56 1011.61 1011.66 1011.71 1011.78 1011.89 1012.05 1012.26 1012.51 1012.79 1013.09 1013.37 1013.61 1013.80 1013.93 1014.01 1014.04 1014.05 1014.05 1014.07 1014.12 1014.19 1014.28 1014.37 1014.44 1014.47 1014.46 1014.40 1014.30 1014.18 1014.06
1009.22 1009.53 1009.86 1010.20 1010.52 1010.81 1011.05 1011.25 1011.40 1011.51 1011.59 1011.64 1011.67 1011.68 1011.69 1011.71 1011.76 1011.85 1011.98 1012.17 1012.40 1012.66 1012.92 1013.17 1013.38 1013.55 1013.66 1013.71 1013.73 1013.73 1013.74 1013.77 1013.83 1013.91 1014.02 1014.13 1014.21 1014.26 1014.26 1014.21 1014.11 1013.98 1013.85
1009.72 1010.04 1010.35 1010.65 1010.92 1011.16 1011.36 1011.52 1011.65 1011.74 1011.81 1011.85 1011.86 1011.86 1011.85 1011.85 1011.87 1011.93 1012.03 1012.18 1012.37 1012.58 1012.80 1013.01 1013.18 1013.30 1013.37 1013.39 1013.39 1013.37 1013.37 1013.39 1013.45 1013.54 1013.65 1013.77 1013.86 1013.93 1013.95 1013.92 1013.84 1013.72 1013.58
1009.99 1010.33 1010.64 1010.92 1011.17 1011.38 1011.56 1011.72 1011.86 1011.97 1012.06 1012.11 1012.14 1012.15 1012.13 1012.11 1012.10 1012.12 1012.17 1012.26 1012.39 1012.54 1012.69 1012.83 1012.94 1013.01 1013.04 1013.02 1012.98 1012.94 1012.91 1012.91 1012.95 1013.03 1013.14 1013.25 1013.36 1013.45 1013.49 1013.48 1013.43 1013.33 1013.21
1010.02 1010.40 1010.73 1011.01 1011.26 1011.47 1011.67 1011.86 1012.04 1012.20 1012.34 1012.44 1012.50 1012.53 1012.51 1012.47 1012.42 1012.38 1012.36 1012.37 1012.41 1012.48 1012.55 1012.62 1012.66 1012.67 1012.64 1012.58 1012.50 1012.42 1012.35 1012.32 1012.34 1012.39 1012.48 1012.59 1012.70 1012.80 1012.86 1012.88 1012.85 1012.79 1012.69
1009.85 1010.29 1010.65 1010.96 1011.23 1011.47 1011.72 1011.96 1012.20 1012.43 1012.63 1012.80 1012.90 1012.94 1012.92 1012.86 1012.75 1012.64 1012.53 1012.45 1012.39 1012.36 1012.35 1012.34 1012.31 1012.26 1012.19 1012.08 1011.96 1011.84 1011.74 1011.67 1011.64 1011.66 1011.72 1011.81 1011.91 1012.00 1012.07 1012.11 1012.11 1012.07 1012.00
1009.61 1010.09 1010.50 1010.84 1011.14 1011.43 1011.73 1012.03 1012.34 1012.64 1012.91 1013.13 1013.26 1013.32 1013.28 1013.18 1013.01 1012.82 1012.62 1012.44 1012.29 1012.17 1012.07 1011.99 1011.91 1011.82 1011.71 1011.57 1011.42 1011.26 1011.12 1011.01 1010.94 1010.90 1010.92 1010.97 1011.04 1011.11 1011.18 1011.22 1011.23 1011.20 1011.14
1009.38 1009.91 1010.35 1010.72 1011.06 1011.39 1011.73 1012.09 1012.45 1012.80 1013.11 1013.36 1013.51 1013.56 1013.50 1013.35 1013.12 1012.86 1012.58 1012.31 1012.08 1011.90 1011.74 1011.62 1011.50 1011.39 1011.26 1011.10 1010.93 1010.75 1010.57 1010.41 1010.28 1010.19 1010.15 1010.14 1010.16 1010.20 1010.24 1010.26 1010.26 1010.23 1010.16
1009.24 1009.79 1010.25 1010.64 1011.00 1011.35 1011.72 1012.10 1012.49 1012.86 1013.18 1013.43 1013.58 1013.60 1013.51 1013.31 1013.04 1012.72 1012.39 1012.08 1011.80 1011.58 1011.41 1011.27 1011.15 1011.03 1010.90 1010.74 1010.56 1010.35 1010.14 1009.93 1009.74 1009.58 1009.47 1009.39 1009.35 1009.33 1009.32 1009.31 1009.28 1009.23 1009.14
1009.20 1009.75 1010.21 1010.61 1010.97 1011.32 1011.68 1012.06 1012.44 1012.79 1013.10 1013.32 1013.44 1013.43 1013.30 1013.08 1012.78 1012.44 1012.09 1011.77 1011.50 1011.29 1011.13 1011.01 1010.91 1010.82 1010.70 1010.55 1010.36 1010.13 1009.88 1009.62 1009.36 1009.13 1008.94 1008.78 1008.66 1008.58 1008.50 1008.44 1008.36 1008.27 1008.14
1009.27 1009.80 1010.23 1010.61 1010.95 1011.28 1011.61 1011.96 1012.29 1012.61 1012.86 1013.04 1013.12 1013.08 1012.93 1012.70 1012.40 1012.08 1011.76 1011.48 1011.25 1011.08 1010.97 1010.90 1010.84 1010.78 1010.68 1010.53 1010.33 1010.08 1009.78 1009.47 1009.15 1008.84 1008.57 1008.33 1008.13 1007.96 1007.82 1007.70 1007.56 1007.42 1007.24
1009.40 1009.88 1010.28 1010.62 1010.93 1011.22 1011.51 1011.81 1012.09 1012.34 1012.54 1012.66 1012.70 1012.64 1012.49 1012.28 1012.02 1011.75 1011.49 1011.28 1011.13 1011.03 1010.98 1010.96 1010.95 1010.91 1010.83 1010.68 1010.46 1010.17 1009.84 1009.46 1009.08 1008.70 1008.35 1008.03 1007.76 1007.52 1007.30 1007.11 1006.92 1006.71 1006.48
1009.55 1009.98 1010.34 1010.64 1010.91 1011.17 1011.42 1011.65 1011.88 1012.07 1012.21 1012.30 1012.30 1012.24 1012.11 1011.93 1011.74 1011.54 1011.38 1011.26 1011.19 1011.17 1011.18 1011.21 1011.22 1011.19 1011.10 1010.93 1010.68 1010.36 1009.98 1009.55 1009.11 1008.67 1008.25 1007.87 1007.53 1007.22 1006.95 1006.68 1006.42 1006.15 1005.86
1009.68 1010.06 1010.38 1010.66 1010.91 1011.14 1011.36 1011.56 1011.74 1011.89 1011.99 1012.05 1012.04 1011.99 1011.89 1011.78 1011.65 1011.55 1011.47 1011.43 1011.44 1011.48 1011.53 1011.58 1011.59 1011.54 1011.42 1011.22 1010.93 1010.56 1010.13 1009.67 1009.18 1008.70 1008.24 1007.81 1007.42 1007.06 1006.72 1006.39 1006.06 1005.71 1005.34
1009.79 1010.14 1010.44 1010.72 1010.97 1011.19 1011.40 1011.59 1011.74 1011.86 1011.95 1011.99 1011.99 1011.96 1011.90 1011.84 1011.79 1011.76 1011.76 1011.79 1011.84 1011.91 1011.97 1012.00 1011.98 1011.89 1011.72 1011.46 1011.12 1010.72 1010.26 1009.76 1009.25 1008.75 1008.27 1007.82 1007.39 1006.98 1006.58 1006.19 1005.78 1005.35 1004.89
1009.90 1010.23 1010.54 1010.83 1011.10 1011.35 1011.57 1011.76 1011.91 1012.03 1012.10 1012.14 1012.16 1012.15 1012.13 1012.12 1012.12 1012.14 1012.18 1012.24 1012.31 1012.36 1012.39 1012.37 1012.29 1012.14 1011.91 1011.60 1011.22 1010.78 1010.30 1009.80 1009.30 1008.80 1008.31 1007.85 1007.40 1006.95 1006.50 1006.03 1005.53 1005.00 1004.43
1010.03 1010.36 1010.69 1011.02 1011.33 1011.61 1011.86 1012.06 1012.23 1012.34 1012.42 1012.46 1012.48 1012.49 1012.50 1012.51 1012.54 1012.58 1012.63 1012.69 1012.73 1012.74 1012.71 1012.62 1012.47 1012.25 1011.96 1011.60 1011.19 1010.74 1010.27 1009.78 1009.30 1008.82 1008.36 1007.89 1007.42 1006.93 1006.41 1005.86 1005.26 1004.62 1003.92
1010.19 1010.55 1010.91 1011.28 1011.63 1011.95 1012.23 1012.46 1012.62 1012.74 1012.81 1012.85 1012.87 1012.87 1012.88 1012.90 1012.93 1012.96 1013.00 1013.02 1013.01 1012.96 1012.86 1012.70 1012.47 1012.18 1011.84 1011.46 1011.04 1010.60 1010.15 1009.71 1009.27 1008.82 1008.38 1007.91 1007.42 1006.88 1006.30 1005.65 1004.93 1004.16 1003.32
1010.40 1010.78 1011.19 1011.59 1011.98 1012.33 1012.62 1012.85 1013.01 1013.11 1013.17 1013.18 1013.18 1013.17 1013.16 1013.16 1013.17 1013.18 1013.17 1013.15 1013.08 1012.97 1012.80 1012.57 1012.29 1011.96 1011.59 1011.19 1010.79 1010.38 1009.98 1009.58 1009.19 1008.78 1008.36 1007.89 1007.37 1006.78 1006.10 1005.35 1004.51 1003.60 1002.63
1010.62 1011.03 1011.46 1011.89 1012.30 1012.64 1012.93 1013.14 1013.27 1013.34 1013.36 1013.34 1013.31 1013.27 1013.23 1013.20 1013.18 1013.16 1013.12 1013.04 1012.93 1012.77 1012.55 1012.27 1011.96 1011.60 1011.23 1010.85 1010.47 1010.11 1009.76 1009.41 1009.06 1008.69 1008.27 1007.79 1007.22 1006.57 1005.81 1004.94 1003.99 1002.95 1001.84
1010.82 1011.25 1011.69 1012.12 1012.51 1012.83 1013.08 1013.25 1013.33 1013.35 1013.32 1013.26 1013.19 1013.11 1013.05 1013.00 1012.95 1012.90 1012.83 1012.73 1012.59 1012.39 1012.15 1011.86 1011.53 1011.18 1010.82 1010.46 1010.12 1009.80 1009.49 1009.18 1008.86 1008.50 1008.08 1007.57 1006.95 1006.22 1005.37 1004.41 1003.34 1002.19 1000.98
1010.94 1011.37 1011.80 1012.20 1012.55 1012.83 1013.02 1013.13 1013.15 1013.12 1013.03 1012.93 1012.82 1012.72 1012.64 1012.58 1012.52 1012.46 1012.39 1012.28 1012.13 1011.93 1011.69 1011.39 1011.07 1010.74 1010.40 1010.07 1009.76 1009.46 1009.18 1008.89 1008.57 1008.20 1007.75 1007.20 1006.52 1005.72 1004.79 1003.74 1002.58 1001.34 1000.05
1010.94 1011.36 1011.76 1012.12 1012.41 1012.62 1012.75 1012.79 1012.75 1012.66 1012.54 1012.40 1012.28 1012.17 1012.09 1012.03 1011.99 1011.94 1011.88 1011.79 1011.65 1011.47 1011.23 1010.95 1010.65 1010.32 1010.00 1009.68 1009.38 1009.09 1008.81 1008.50 1008.17 1007.76 1007.27 1006.66 1005.93 1005.06 1004.07 1002.95 1001.73 1000.44 999.11
1010.81 1011.19 1011.55 1011.86 1012.09 1012.23 1012.29 1012.27 1012.19 1012.06 1011.91 1011.77 1011.65 1011.56 1011.50 1011.47 1011.45 1011.44 1011.41 1011.34 1011.23 1011.06 1010.85 1010.58 1010.28 1009.96 1009.64 1009.32 1009.00 1008.69 1008.38 1008.04 1007.66 1007.21 1006.66 1006.00 1005.21 1004.29 1003.24 1002.08 1000.83 999.52 998.16
Thickness
5490 5491 5492 5494 5495 5497 5498 5500 5501 5502 5503 5504 5505 5504 5504 5504 5503 5502 5501 5501 5500 5499 5498 5498 5497 5496 5495 5494 5494 5493 5492 5491 5491 5493 5492 5492 5492 5492 5492 5493 5493 5495 5496
5478 5480 5481 5482 5484 5485 5487 5488 5489 5490 5491 5492 5492 5492 5492 5491 5491 5490 5489 5488 5488 5487 5487 5486 5486 5485 5484 5483 5483 5482 5481 5480 5480 5481 5482 5481 5480 5480 5480 5481 5482 5483 5484
5468 5469 5469 5470 5472 5473 5474 5476 5477 5478 5479 5480 5479 5479 5479 5479 5479 5478 5478 5477 5477 5476 5476 5476 5475 5474 5473 5472 5472 5471 5470 5469 5468 5469 5470 5470 5469 5468 5468 5469 5470 5471 5472
5457 5458 5459 5459 5460 5461 5463 5464 5465 5466 5467 5467 5467 5467 5467 5467 5467 5467 5466 5466 5465 5465 5465 5464 5463 5463 5462 5461 5461 5460 5459 5458 5457 5457 5458 5458 5457 5456 5455 5456 5457 5459 5460
5447 5447 5448 5448 5448 5449 5450 5451 5453 5454 5455 5455 5455 5455 5455 5455 5455 5455 5455 5455 5454 5453 5453 5452 5452 5452 5451 5450 5450 5449 5448 5447 5445 5445 5446 5446 5445 5444 5443 5444 5444 5446 5448
5437 5436 5437 5437 5437 5438 5438 5439 5440 5441 5442 5442 5442 5443 5443 5444 5445 5445 5445 5443 5442 5441 5441 5441 5440 5440 5440 5440 5439 5439 5438 5436 5434 5433 5434 5434 5434 5433 5432 5432 5432 5433 5435
5427 5426 5426 5426 5426 5426 5426 5427 5427 5428 5429 5430 5430 5430 5431 5431 5433 5434 5433 5432 5430 5430 5429 5429 5429 5429 5428 5427 5427 5427 5426 5425 5425 5424 5424 5423 5423 5423 5421 5421 5420 5421 5423
5417 5416 5415 5415 5414 5414 5414 5415 5415 5416 5417 5418 5419 5419 5419 5420 5421 5422 5422 5420 5419 5418 5418 5417 5417 5416 5416 5416 5416 5415 5414 5413 5413 5413 5413 5413 5412 5411 5411 5410 5409 5410 5411
5408 5406 5405 5404 5404 5404 5404 5404 5404 5404 5406 5407 5408 5408 5408 5409 5410 5411 5411 5409 5409 5408 5407 5407 5406 5406 5406 5406 5405 5404 5404 5403 5402 5402 5402 5401 5401 5400 5399 5398 5397 5397 5400
5400 5398 5396 5395 5394 5394 5394 5394 5394 5394 5395 5396 5397 5397 5397 5398 5399 5400 5400 5399 5399 5398 5397 5396 5396 5395 5395 5395 5394 5393 5393 5393 5392 5392 5391 5390 5389 5388 5388 5387 5387 5386 5387
5392 5390 5388 5386 5385 5385 5384 5384 5384 5384 5385 5386 5387 5388 5388 5388 5389 5390 5391 5390 5389 5388 5386 5385 5385 5385 5385 5385 5384 5383 5383 5383 5382 5380 5379 5379 5378 5377 5376 5375 5375 5375 5376
5383 5381 5379 5378 5376 5376 5374 5374 5374 5373 5374 5375 5376 5377 5378 5378 5379 5380 5381 5381 5380 5378 5377 5376 5375 5375 5375 5374 5373 5373 5372 5372 5370 5368 5368 5368 5367 5366 5365 5365 5365 5365 5366
5375 5372 5370 5369 5367 5366 5365 5365 5364 5364 5364 5366 5366 5367 5368 5368 5369 5370 5371 5370 5370 5369 5368 5367 5367 5366 5364 5362 5361 5361 5360 5358 5357 5357 5357 5357 5356 5356 5355 5355 5355 5355 5356
5367 5364 5363 5361 5359 5357 5356 5356 5356 5356 5356 5357 5358 5358 5358 5359 5359 5360 5360 5359 5359 5358 5357 5356 5356 5355 5353 5351 5350 5348 5347 5346 5346 5347 5347 5346 5346 5346 5346 5346 5345 5345 5345
5359 5357 5355 5354 5351 5349 5348 5348 5348 5349 5349 5349 5350 5349 5349 5350 5351 5352 5351 5350 5349 5348 5346 5345 5344 5342 5341 5340 5339 5337 5336 5336 5336 5336 5336 5336 5336 5336 5337 5337 5336 5336 5335
5352 5349 5347 5345 5343 5341 5340 5340 5341 5341 5343 5343 5343 5342 5342 5343 5343 5343 5342 5341 5340 5338 5335 5334 5333 5331 5330 5329 5328 5327 5326 5326 5325 5325 5326 5326 5327 5328 5328 5328 5327 5327 5327
5344 5342 5339 5337 5335 5333 5332 5332 5333 5333 5333 5333 5333 5333 5333 5333 5333 5333 5332 5330 5329 5327 5324 5323 5322 5321 5320 5319 5318 5317 5316 5316 5316 5316 5317 5317 5318 5319 5320 5320 5320 5319 5319
5337 5335 5332 5329 5327 5325 5324 5324 5323 5323 5323 5322 5322 5322 5323 5323 5323 5322 5321 5319 5317 5315 5313 5313 5312 5311 5310 5309 5308 5308 5308 5307 5307 5308 5308 5308 5308 5309 5311 5311 5312 5312 5312
5330 5327 5325 5322 5320 5318 5316 5315 5314 5313 5312 5312 5311 5312 5312 5313 5312 5311 5310 5307 5306 5305 5305 5304 5303 5302 5301 5300 5300 5299 5299 5299 5300 5300 5301 5301 5301 5301 5302 5303 5303 5304 5304
5325 5323 5320 5317 5314 5312 5310 5308 5305 5304 5302 5301 5301 5301 5301 5301 5300 5300 5299 5297 5297 5296 5296 5295 5295 5294 5293 5292 5292 5291 5291 5292 5292 5293 5293 5293 5294 5294 5295 5295 5295 5295 5295
5320 5317 5316 5312 5308 5306 5303 5301 5298 5295 5294 5293 5292 5293 5294 5292 5291 5290 5289 5288 5288 5288 5287 5287 5286 5286 5285 5285 5284 5284 5284 5284 5284 5285 5286 5287 5287 5287 5288 5288 5288 5288 5287
5315 5312 5309 5306 5303 5300 5297 5294 5291 5289 5287 5286 5285 5284 5285 5284 5282 5281 5281 5280 5280 5280 5279 5279 5279 5279 5278 5278 5278 5278 5278 5278 5278 5279 5280 5280 5281 5282 5282 5282 5282 5281 5281
5310 5307 5303 5300 5297 5295 5292 5289 5285 5283 5281 5279 5278 5277 5276 5275 5274 5274 5273 5273 5272 5272 5272 5272 5272 5272 5272 5272 5273 5273 5273 5273 5274 5274 5275 5275 5276 5276 5276 5276 5276 5275 5275
5305 5301 5297 5294 5290 5288 5285 5283 5280 5278 5276 5274 5273 5271 5270 5269 5268 5267 5267 5267 5267 5267 5267 5267 5267 5267 5267 5267 5268 5268 5268 5269 5269 5270 5271 5271 5271 5271 5271 5271 5271 5270 5270
5301 5296 5292 5288 5285 5282 5279 5277 5274 5272 5270 5269 5267 5266 5265 5264 5263 5262 5262 5261 5262 5262 5262 5262 5262 5263 5263 5263 5263 5264 5264 5265 5266 5266 5267 5267 5267 5267 5266 5266 5266 5266 5266
5295 5291 5287 5283 5280 5276 5274 5271 5269 5267 5265 5263 5262 5261 5260 5259 5258 5258 5257 5257 5257 5257 5258 5258 5258 5258 5258 5259 5260 5260 5261 5262 5263 5264 5264 5264 5263 5263 5262 5262 5262 5262 5262